Location: Antichan
(42.9728°N, 0.6667°E)
Time: 18:07:11
(UTC+00:00)

deb Kosmos-1763 - Pass Details

Date: 15 August 2020
Orbit: 463 x 478 km, 74.0° (Epoch: 20 September)

Event Time Altitude Azimuth Distance (km) Brightness Sun altitude
Rises 19:23:06 0° 188° (S) 2,499 7.5 -4.9°
Reaches altitude 10° 19:25:13 10° 184° (S) 1,630 6.5 -5.3°
Maximum altitude 19:28:44 54° 106° (ESE) 582 4.1 -5.9°
Drops below altitude 10° 19:32:18 10° 29° (NNE) 1,653 6.7 -6.4°
Sets 19:34:27 0° 25° (NNE) 2,539 7.7 -6.8°
